CW5619 Weather Reports


time (UTC)temp
C
wind
direction
speed
KPH
gust
KPH
rain 1hr
cm
rain 24hr
cm
rain mn
cm
humidity
%
barometer
mb
20260906002404 35 298 4.8 9.7 0.00 0.00 0.00 30 1012.0
20260906001904 35 323 3.2 14.5 0.00 0.00 0.00 31 1012.2
20260906001403 35 214 3.2 16.1 0.00 0.00 0.00 31 1012.2
20260906000903 36 248 4.8 16.1 0.00 0.00 0.00 31 1012.0
20260906000404 36 235 4.8 9.7 0.00 0.00 0.00 30 1012.2
20260905235903 36 230 3.2 11.3 0.00 0.00 0.00 30 1012.1
20260905234903 36 220 3.2 12.9 0.00 0.00 0.00 30 1012.1
20260905234403 36 232 4.8 12.9 0.00 0.00 0.00 30 1012.0
20260905233904 36 272 6.4 12.9 0.00 0.00 0.00 30 1012.1
20260905233404 36 185 4.8 12.9 0.00 0.00 0.00 30 1012.1
20260905232904 36 0 4.8 11.3 0.00 0.00 0.00 30 1012.1
20260905231904 37 243 3.2 16.1 0.00 0.00 0.00 29 1012.1
20260905231403 37 213 8.0 16.1 0.00 0.00 0.00 29 1012.1
20260905230903 37 226 3.2 16.1 0.00 0.00 0.00 29 1012.2
20260905225903 37 247 4.8 14.5 0.00 0.00 0.00 29 1012.2
20260905224403 37 174 4.8 12.9 0.00 0.00 0.00 29 1012.3
20260905223904 37 228 4.8 12.9 0.00 0.00 0.00 29 1012.4
20260905223405 37 136 3.2 11.3 0.00 0.00 0.00 29 1012.4
20260905222903 37 201 4.8 11.3 0.00 0.00 0.00 29 1012.4
20260905222403 37 322 3.2 12.9 0.00 0.00 0.00 29 1012.5
20260905221903 37 227 3.2 12.9 0.00 0.00 0.00 29 1012.6
20260905221404 37 225 4.8 16.1 0.00 0.00 0.00 28 1012.7
20260905220903 37 235 8.0 16.1 0.00 0.00 0.00 28 1012.7
20260905220403 37 219 3.2 11.3 0.00 0.00 0.00 28 1012.7
20260905215903 37 212 3.2 11.3 0.00 0.00 0.00 28 1012.9
20260905215404 37 53 3.2 11.3 0.00 0.00 0.00 27 1012.8
20260905214903 37 208 8.0 11.3 0.00 0.00 0.00 28 1013.0
20260905213903 37 221 4.8 12.9 0.00 0.00 0.00 28 1013.2
20260905213404 37 212 4.8 11.3 0.00 0.00 0.00 27 1013.1
20260905212903 37 303 3.2 12.9 0.00 0.00 0.00 28 1013.2
20260905212403 37 321 4.8 14.5 0.00 0.00 0.00 29 1013.2
20260905211903 37 225 4.8 14.5 0.00 0.00 0.00 29 1013.2
20260905211403 37 266 3.2 11.3 0.00 0.00 0.00 29 1013.2
20260905210903 37 248 4.8 11.3 0.00 0.00 0.00 29 1013.4
20260905210403 37 226 3.2 14.5 0.00 0.00 0.00 29 1013.5
20260905205903 37 219 3.2 14.5 0.00 0.00 0.00 28 1013.6
20260905205404 37 274 4.8 14.5 0.00 0.00 0.00 29 1013.6
20260905204904 37 246 3.2 11.3 0.00 0.00 0.00 30 1013.6
20260905203903 37 242 3.2 12.9 0.00 0.00 0.00 30 1013.9
20260905203404 36 233 3.2 12.9 0.00 0.00 0.00 31 1013.9
20260905202903 36 229 6.4 12.9 0.00 0.00 0.00 31 1014.1
20260905202403 36 234 4.8 12.9 0.00 0.00 0.00 31 1014.1
20260905201904 36 247 8.0 12.9 0.00 0.00 0.00 30 1014.2
20260905201403 36 231 4.8 11.3 0.00 0.00 0.00 30 1014.2
20260905200904 36 224 4.8 11.3 0.00 0.00 0.00 31 1014.3
20260905200403 36 210 4.8 11.3 0.00 0.00 0.00 31 1014.4
20260905195903 36 214 3.2 11.3 0.00 0.00 0.00 32 1014.4
20260905195403 36 220 4.8 11.3 0.00 0.00 0.00 31 1014.5
20260905194903 36 192 4.8 11.3 0.00 0.00 0.00 32 1014.6
20260905194403 36 239 3.2 12.9 0.00 0.00 0.00 32 1014.6
20260905193903 36 233 8.0 12.9 0.00 0.00 0.00 31 1014.6
20260905192403 36 224 4.8 14.5 0.00 0.00 0.00 32 1014.9
20260905191904 36 311 4.8 14.5 0.00 0.00 0.00 32 1015.0
20260905191403 36 241 6.4 11.3 0.00 0.00 0.00 32 1015.0
20260905190904 35 239 3.2 9.7 0.00 0.00 0.00 33 1015.2
20260905190404 35 236 3.2 9.7 0.00 0.00 0.00 33 1015.3
20260905185903 35 142 3.2 12.9 0.00 0.00 0.00 33 1015.2
20260905185403 35 225 4.8 12.9 0.00 0.00 0.00 33 1015.3
20260905184904 35 199 3.2 11.3 0.00 0.00 0.00 33 1015.3
20260905184403 35 221 4.8 11.3 0.00 0.00 0.00 33 1015.3
20260905183903 35 228 3.2 12.9 0.00 0.00 0.00 33 1015.4
20260905183403 35 57 4.8 12.9 0.00 0.00 0.00 34 1015.5
20260905182904 35 235 3.2 9.7 0.00 0.00 0.00 34 1015.5
20260905182404 35 269 3.2 12.9 0.00 0.00 0.00 34 1015.7
20260905181903 35 230 3.2 12.9 0.00 0.00 0.00 34 1015.6
20260905181403 35 204 3.2 9.7 0.00 0.00 0.00 35 1015.7
20260905180903 35 137 3.2 12.9 0.00 0.00 0.00 35 1015.7
20260905180404 34 217 4.8 12.9 0.00 0.00 0.00 35 1015.7
20260905175904 33 232 4.8 12.9 0.00 0.00 0.00 36 1015.7
20260905175404 33 228 3.2 9.7 0.00 0.00 0.00 36 1015.8
20260905174903 33 235 3.2 8.0 0.00 0.00 0.00 37 1015.8
20260905174403 33 201 1.6 8.0 0.00 0.00 0.00 37 1015.9
20260905173903 33 195 3.2 8.0 0.00 0.00 0.00 37 1015.9
20260905173404 33 227 4.8 8.0 0.00 0.00 0.00 37 1015.9
20260905172904 33 61 3.2 4.8 0.00 0.00 0.00 39 1015.9
20260905172403 32 205 1.6 4.8 0.00 0.00 0.00 40 1015.9
20260905171904 32 73 3.2 4.8 0.00 0.00 0.00 39 1015.9
20260905171403 33 218 1.6 4.8 0.00 0.00 0.00 40 1016.1
20260905170904 32 189 3.2 4.8 0.00 0.00 0.00 40 1016.0
20260905170403 32 234 1.6 4.8 0.00 0.00 0.00 43 1016.0
20260905165903 32 238 3.2 4.8 0.00 0.00 0.00 43 1016.1
20260905164903 31 132 0.0 4.8 0.00 0.00 0.00 45 1016.1
20260905164403 31 172 3.2 4.8 0.00 0.00 0.00 46 1016.2
20260905163903 31 215 1.6 4.8 0.00 0.00 0.00 46 1016.0
20260905163403 31 189 1.6 4.8 0.00 0.00 0.00 49 1016.0
20260905162903 31 95 3.2 4.8 0.00 0.00 0.00 49 1016.0
20260905162404 30 106 0.0 4.8 0.00 0.00 0.00 50 1016.1
20260905161904 30 94 1.6 4.8 0.00 0.00 0.00 49 1016.2
20260905161403 30 157 0.0 4.8 0.00 0.00 0.00 51 1016.0
20260905160403 30 87 1.6 4.8 0.00 0.00 0.00 52 1016.1
20260905155903 30 88 1.6 4.8 0.00 0.00 0.00 53 1016.1
20260905155404 29 158 1.6 4.8 0.00 0.00 0.00 53 1016.1
20260905154903 29 169 1.6 4.8 0.00 0.00 0.00 53 1016.1
20260905154403 29 96 1.6 4.8 0.00 0.00 0.00 55 1016.0
20260905153903 28 180 1.6 4.8 0.00 0.00 0.00 54 1016.1
20260905153403 28 128 0.0 4.8 0.00 0.00 0.00 56 1016.1
20260905152903 28 120 1.6 4.8 0.00 0.00 0.00 56 1016.1
20260905151903 28 189 1.6 4.8 0.00 0.00 0.00 57 1016.1
20260905151404 28 211 1.6 8.0 0.00 0.00 0.00 57 1016.0
20260905150903 27 129 1.6 8.0 0.00 0.00 0.00 58 1016.0
20260905145903 27 134 1.6 4.8 0.00 0.00 0.00 60 1015.9
20260905145404 27 150 1.6 4.8 0.00 0.00 0.00 60 1016.0
20260905144903 27 165 1.6 4.8 0.00 0.00 0.00 60 1015.9
20260905144404 27 154 1.6 4.8 0.00 0.00 0.00 61 1016.0
20260905143903 26 91 1.6 4.8 0.00 0.00 0.00 62 1016.1
20260905142904 26 105 1.6 4.8 0.00 0.00 0.00 63 1016.0
20260905142403 26 96 1.6 4.8 0.00 0.00 0.00 63 1015.9
20260905141903 26 83 1.6 4.8 0.00 0.00 0.00 64 1015.7
20260905141403 26 100 3.2 4.8 0.00 0.00 0.00 64 1015.6
20260905140403 25 88 1.6 4.8 0.00 0.00 0.00 66 1015.5
20260905135904 25 109 1.6 4.8 0.00 0.00 0.00 67 1015.4
20260905135404 25 125 0.0 3.2 0.00 0.00 0.00 68 1015.4
20260905134903 24 82 0.0 1.6 0.00 0.00 0.00 69 1015.4
20260905134403 23 82 0.0 1.6 0.00 0.00 0.00 70 1015.3
20260905133904 23 82 0.0 1.6 0.00 0.00 0.00 70 1015.2
20260905133404 23 76 0.0 4.8 0.00 0.00 0.00 70 1015.0
20260905131903 23 87 0.0 1.6 0.00 0.00 0.00 71 1014.7
20260905131404 23 92 0.0 1.6 0.00 0.00 0.00 71 1014.7
20260905130903 23 92 0.0 1.6 0.00 0.00 0.00 71 1014.6
20260905130403 23 92 0.0 0.0 0.00 0.00 0.00 71 1014.6
20260905124903 23 92 0.0 1.6 0.00 0.00 0.00 70 1014.7
20260905124403 23 92 0.0 0.0 0.00 0.00 0.00 69 1014.7
20260905123903 23 92 0.0 1.6 0.00 0.00 0.00 69 1014.6
20260905123403 23 92 0.0 1.6 0.00 0.00 0.00 69 1014.6
20260905122904 23 92 0.0 1.6 0.00 0.00 0.00 69 1014.6
20260905122404 23 92 0.0 3.2 0.00 0.00 0.00 69 1014.4
20260905121904 23 92 0.0 3.2 0.00 0.00 0.00 69 1014.4
20260905121403 23 93 0.0 3.2 0.00 0.00 0.00 69 1014.4
20260905120903 23 77 0.0 3.2 0.00 0.00 0.00 69 1014.4
20260905120404 23 63 0.0 1.6 0.00 0.00 0.00 69 1014.3
20260905115904 23 63 0.0 1.6 0.00 0.00 0.00 69 1014.3
20260905115404 24 63 0.0 1.6 0.00 0.00 0.00 69 1014.3
20260905114904 24 63 0.0 1.6 0.00 0.00 0.00 69 1014.3
20260905114403 24 63 0.0 1.6 0.00 0.00 0.00 68 1014.4
20260905113903 24 63 0.0 1.6 0.00 0.00 0.00 68 1014.5
20260905112903 24 63 0.0 1.6 0.00 0.00 0.00 69 1014.4
20260905112403 24 63 0.0 0.0 0.00 0.00 0.00 69 1014.4
20260905111903 24 63 0.0 0.0 0.00 0.00 0.00 69 1014.4
20260905111404 24 63 0.0 0.0 0.00 0.00 0.00 68 1014.4
20260905110904 24 63 0.0 0.0 0.00 0.00 0.00 68 1014.3
20260905110403 25 63 0.0 0.0 0.00 0.00 0.00 67 1014.3
20260905105903 25 63 0.0 0.0 0.00 0.00 0.00 67 1014.3
20260905104404 25 63 0.0 1.6 0.00 0.00 0.00 66 1014.3
20260905103903 25 63 0.0 1.6 0.00 0.00 0.00 66 1014.2
20260905103403 25 63 0.0 1.6 0.00 0.00 0.00 67 1014.3
20260905102904 25 63 0.0 3.2 0.00 0.00 0.00 66 1014.3
20260905102403 25 63 0.0 3.2 0.00 0.00 0.00 66 1014.3
20260905101903 25 78 0.0 3.2 0.00 0.00 0.00 66 1014.3
20260905101404 25 88 0.0 3.2 0.00 0.00 0.00 66 1014.3
20260905100904 25 86 0.0 3.2 0.00 0.00 0.00 66 1014.3
20260905100403 25 87 1.6 3.2 0.00 0.00 0.00 66 1014.3
20260905095403 25 76 0.0 1.6 0.00 0.00 0.00 66 1014.3
20260905094903 25 76 0.0 1.6 0.00 0.00 0.00 65 1014.3
20260905094403 25 76 0.0 3.2 0.00 0.00 0.00 67 1014.3
20260905093903 25 76 0.0 3.2 0.00 0.00 0.00 66 1014.3
20260905093404 25 85 0.0 3.2 0.00 0.00 0.00 65 1014.3
20260905092904 25 62 0.0 1.6 0.00 0.00 0.00 65 1014.3
20260905092404 25 62 0.0 1.6 0.00 0.00 0.00 66 1014.3
20260905091904 25 62 0.0 1.6 0.00 0.00 0.00 66 1014.4
20260905091403 25 62 0.0 1.6 0.00 0.00 0.00 65 1014.3
20260905090904 25 62 0.0 1.6 0.00 0.00 0.00 65 1014.4
20260905090404 25 62 0.0 1.6 0.00 0.00 0.00 64 1014.4
20260905085404 26 62 0.0 1.6 0.00 0.00 0.00 64 1014.4
20260905084903 26 62 0.0 1.6 0.00 0.00 0.00 65 1014.3
20260905084404 26 62 0.0 1.6 0.00 0.00 0.00 63 1014.3
20260905083903 26 62 0.0 1.6 0.00 0.00 0.00 63 1014.4
20260905083403 26 62 0.0 1.6 0.00 0.00 0.00 63 1014.4
20260905082904 26 62 0.0 1.6 0.00 0.00 0.00 63 1014.4
20260905081903 26 62 0.0 0.0 0.00 0.00 0.00 63 1014.6
20260905080903 26 62 0.0 1.6 0.00 0.00 0.00 61 1014.7
20260905080404 26 62 0.0 1.6 0.00 0.00 0.00 61 1014.7
20260905075904 26 62 0.0 0.0 0.00 0.00 0.00 62 1014.7
20260905075403 26 62 0.0 0.0 0.00 0.00 0.00 61 1014.7
20260905074903 27 62 0.0 0.0 0.00 0.00 0.00 60 1014.7
20260905074404 27 62 0.0 0.0 0.00 0.00 0.00 59 1014.7
20260905073904 27 62 0.0 0.0 0.00 0.00 0.00 59 1014.7
20260905073404 27 62 0.0 0.0 0.00 0.00 0.00 59 1014.6
20260905072903 27 62 0.0 1.6 0.00 0.00 0.00 58 1014.6
20260905072403 27 62 0.0 1.6 0.00 0.00 0.00 58 1014.6
20260905071903 27 62 0.0 0.0 0.00 0.00 0.00 58 1014.6
20260905071403 27 62 0.0 0.0 0.00 0.00 0.00 58 1014.4
20260905070903 27 62 0.0 0.0 0.00 0.00 0.00 58 1014.4
20260905070404 27 62 0.0 0.0 0.00 0.00 0.00 57 1014.4
20260905065903 27 62 0.0 1.6 0.00 0.00 0.00 57 1014.4
20260905065403 27 62 0.0 1.6 0.00 0.00 0.00 56 1014.5
20260905064403 28 62 0.0 3.2 0.00 0.00 0.00 55 1014.5
20260905063903 28 62 0.0 3.2 0.00 0.00 0.00 54 1014.3
20260905063403 28 80 1.6 3.2 0.00 0.00 0.00 55 1014.4
20260905062903 27 80 0.0 4.8 0.00 0.00 0.00 55 1014.4
20260905062404 27 24 1.6 4.8 0.00 0.00 0.00 56 1014.5
20260905061904 27 127 0.0 0.0 0.00 0.00 0.00 57 1014.4
20260905061404 27 127 0.0 0.0 0.00 0.00 0.00 57 1014.3
20260905060904 28 127 0.0 0.0 0.00 0.00 0.00 55 1014.3
20260905054903 28 206 0.0 3.2 0.00 0.00 0.00 52 1014.2
20260905054403 28 51 0.0 1.6 0.00 0.00 0.00 52 1014.1
20260905053903 28 51 0.0 1.6 0.00 0.00 0.00 51 1014.0
20260905053403 28 51 0.0 3.2 0.00 0.00 0.00 50 1014.0
20260905052903 29 51 0.0 3.2 0.00 0.00 0.00 49 1013.9
20260905052404 29 51 0.0 1.6 0.00 0.00 0.00 49 1013.9
20260905051904 29 51 0.0 1.6 0.00 0.00 0.00 49 1013.9
20260905051404 29 51 0.0 1.6 0.00 0.00 0.00 50 1013.8
20260905050903 29 51 0.0 3.2 0.00 0.00 0.00 50 1013.8
20260905045904 29 55 1.6 4.8 0.00 0.00 0.00 49 1013.8
20260905045403 29 81 1.6 3.2 0.00 0.00 0.00 49 1013.7
20260905044904 29 101 0.0 1.6 0.00 0.00 0.00 50 1013.8
20260905044403 29 101 0.0 1.6 0.00 0.00 0.00 50 1013.8
20260905043904 30 101 0.0 3.2 0.00 0.00 0.00 48 1013.7
20260905043404 30 104 1.6 3.2 0.00 0.00 0.00 47 1013.7
20260905042903 30 229 0.0 1.6 0.00 0.00 0.00 46 1013.8
20260905041904 31 229 0.0 0.0 0.00 0.03 0.00 42 1013.7
20260905041403 31 229 0.0 3.2 0.00 0.13 0.00 41 1013.7
20260905040904 31 229 0.0 4.8 0.00 0.18 0.00 40 1013.7
20260905040404 31 229 0.0 4.8 0.00 0.20 0.00 40 1013.6
20260905035904 31 253 1.6 4.8 0.00 0.20 0.00 39 1013.7
20260905035404 31 238 0.0 8.0 0.00 0.25 0.00 39 1013.7
20260905034904 31 246 1.6 8.0 0.00 0.25 0.00 39 1013.6
20260905034403 32 224 1.6 4.8 0.00 0.25 0.00 39 1013.6
20260905033903 32 243 1.6 4.8 0.00 0.25 0.00 38 1013.6
20260905032903 32 221 1.6 4.8 0.00 0.25 0.00 38 1013.5
20260905031903 32 209 1.6 4.8 0.00 0.25 0.00 37 1013.4
20260905031403 32 220 1.6 4.8 0.00 0.25 0.00 37 1013.2
20260905030903 32 207 0.0 3.2 0.00 0.25 0.00 37 1013.1
20260905030404 32 213 0.0 3.2 0.00 0.25 0.00 37 1013.1
20260905024903 32 211 1.6 3.2 0.00 0.25 0.00 36 1012.9
20260905024403 32 226 1.6 4.8 0.00 0.25 0.00 36 1012.8
20260905023904 32 223 1.6 4.8 0.00 0.25 0.00 36 1012.8
20260905022903 33 247 1.6 4.8 0.00 0.25 0.00 35 1012.5
20260905022403 33 229 1.6 9.7 0.00 0.25 0.00 35 1012.5
20260905021904 33 239 3.2 9.7 0.00 0.25 0.00 34 1012.5
20260905021403 33 247 1.6 4.8 0.00 0.25 0.00 33 1012.4
20260905020903 33 242 3.2 8.0 0.00 0.25 0.00 33 1012.4
20260905020403 33 240 3.2 8.0 0.00 0.25 0.00 33 1012.3
20260905015903 33 239 3.2 4.8 0.00 0.25 0.00 33 1012.2
20260905015404 33 236 1.6 4.8 0.00 0.25 0.00 33 1012.3
20260905014904 33 228 1.6 4.8 0.00 0.25 0.00 32 1012.2
20260905014404 33 241 1.6 4.8 0.00 0.25 0.00 31 1012.2
20260905013903 33 211 0.0 3.2 0.00 0.25 0.00 31 1012.3
20260905013403 33 228 0.0 9.7 0.00 0.25 0.00 31 1012.2
20260905012403 34 282 1.6 4.8 0.00 0.25 0.00 31 1012.2
20260905011904 34 297 3.2 9.7 0.00 0.25 0.00 31 1012.2
20260905011403 34 209 3.2 9.7 0.00 0.25 0.00 30 1012.1
20260905010903 34 277 1.6 11.3 0.00 0.25 0.00 30 1012.0
20260905010404 34 218 3.2 11.3 0.00 0.25 0.00 30 1012.1
20260905005903 34 18 1.6 9.7 0.00 0.25 0.00 30 1012.0
20260905005403 35 304 3.2 11.3 0.00 0.25 0.00 29 1012.0
20260905004903 35 13 3.2 11.3 0.00 0.25 0.00 29 1011.9
20260905004404 35 238 3.2 11.3 0.00 0.25 0.00 29 1012.0
20260905003904 35 196 3.2 4.8 0.00 0.25 0.00 28 1012.0
20260905002903 35 332 1.6 8.0 0.00 0.25 0.00 28 1012.0